AUA129 LOWW-ENGM

Flight info

Callsign AUA129
Flight time N/A
Altitude 34000
Route LANUX DCT VLM DCT HDO DCT POGAB DCT SONAL DCT GOLMI DCT KULUD DCT SABAK DCT LUNIP
Aircraft A320/M-SDE3FGHIRWY/LB1

Departure

Time 2026-05-01 10:58
Airport Vienna International Airport (LOWW)

Arrival

Time N/A
Airport Oslo-Gardermoen International Airport (ENGM)
Time Latitude Longitude Altitude Speed Heading
2026-05-01 10:27 48.11955 16.55592 621 ft 0 kts 64°
2026-05-01 10:42 48.11954 16.55590 622 ft 2 kts 64°
2026-05-01 10:42 48.11941 16.55557 623 ft 4 kts 48°
2026-05-01 10:43 48.11921 16.55531 624 ft 4 kts 30°
2026-05-01 10:43 48.11897 16.55513 617 ft 4 kts 27°
2026-05-01 10:43 48.11881 16.55498 621 ft 4 kts 98°
2026-05-01 10:43 48.11880 16.55495 620 ft 0 kts 117°
2026-05-01 10:46 48.11857 16.55550 609 ft 11 kts 130°
2026-05-01 10:46 48.11849 16.55557 609 ft 0 kts 154°
2026-05-01 10:49 48.11840 16.55563 613 ft 7 kts 154°
2026-05-01 10:49 48.11771 16.55604 609 ft 10 kts 150°
2026-05-01 10:50 48.11730 16.55683 611 ft 9 kts 114°
2026-05-01 10:50 48.11702 16.55779 614 ft 12 kts 114°
2026-05-01 10:50 48.11653 16.55913 617 ft 17 kts 116°
2026-05-01 10:50 48.11598 16.56097 612 ft 22 kts 114°
2026-05-01 10:51 48.11519 16.56321 609 ft 27 kts 115°
2026-05-01 10:51 48.11440 16.56578 616 ft 28 kts 117°
2026-05-01 10:51 48.11359 16.56825 616 ft 25 kts 113°
2026-05-01 10:51 48.11284 16.57054 617 ft 25 kts 117°
2026-05-01 10:52 48.11214 16.57284 611 ft 23 kts 117°
2026-05-01 10:52 48.11148 16.57480 614 ft 19 kts 115°
2026-05-01 10:52 48.11095 16.57650 617 ft 17 kts 119°
2026-05-01 10:52 48.11014 16.57790 616 ft 20 kts 149°
2026-05-01 10:53 48.10874 16.57865 622 ft 23 kts 163°
2026-05-01 10:53 48.10709 16.57941 613 ft 27 kts 165°
2026-05-01 10:53 48.10543 16.58012 617 ft 23 kts 159°
2026-05-01 10:53 48.10443 16.57983 609 ft 12 kts 161°
2026-05-01 10:54 48.10338 16.58084 615 ft 25 kts 158°
2026-05-01 10:54 48.10183 16.58163 617 ft 16 kts 168°
2026-05-01 10:54 48.10063 16.58215 618 ft 21 kts 165°
2026-05-01 10:54 48.09894 16.58284 618 ft 29 kts 165°
2026-05-01 10:55 48.09729 16.58350 615 ft 23 kts 169°
2026-05-01 10:55 48.09646 16.58479 613 ft 16 kts 80°
2026-05-01 10:55 48.09702 16.58559 612 ft 0 kts 13°
2026-05-01 10:56 48.09705 16.58560 612 ft 3 kts 14°
2026-05-01 10:56 48.09741 16.58572 618 ft 14 kts 11°
2026-05-01 10:56 48.09893 16.58608 609 ft 30 kts
2026-05-01 10:57 48.10054 16.58630 617 ft 13 kts 344°
2026-05-01 10:57 48.10061 16.58627 613 ft 7 kts 343°
2026-05-01 10:57 48.10370 16.58495 614 ft 82 kts 345°
2026-05-01 10:57 48.11116 16.58178 619 ft 139 kts 344°
2026-05-01 10:58 48.12165 16.57737 834 ft 163 kts 343°
2026-05-01 10:58 48.13264 16.57352 1616 ft 163 kts 358°
2026-05-01 10:58 48.14373 16.57842 2135 ft 176 kts 25°
2026-05-01 10:58 48.15509 16.58794 2417 ft 199 kts 27°
2026-05-01 10:59 48.16763 16.59885 2819 ft 219 kts 28°
2026-05-01 10:59 48.18131 16.61021 3442 ft 228 kts 27°
2026-05-01 10:59 48.19559 16.62227 4011 ft 244 kts 31°
2026-05-01 10:59 48.21012 16.63610 4839 ft 249 kts 33°
2026-05-01 11:00 48.22487 16.64997 5714 ft 252 kts 28°
2026-05-01 11:00 48.24183 16.65693 6565 ft 259 kts
2026-05-01 11:00 48.25960 16.65096 7364 ft 270 kts 336°
2026-05-01 11:00 48.27595 16.63683 8199 ft 273 kts 334°
2026-05-01 11:01 48.29232 16.62223 9044 ft 275 kts 334°
2026-05-01 11:01 48.30883 16.60748 9866 ft 278 kts 334°
2026-05-01 11:01 48.32557 16.59257 10600 ft 283 kts 335°
2026-05-01 11:01 48.34312 16.57705 10880 ft 304 kts 335°
2026-05-01 11:02 48.36205 16.56038 11058 ft 327 kts 334°
2026-05-01 11:02 48.38235 16.54248 11177 ft 349 kts 334°
2026-05-01 11:02 48.40374 16.52359 11587 ft 361 kts 334°
2026-05-01 11:02 48.42546 16.50427 12228 ft 364 kts 334°
2026-05-01 11:03 48.44655 16.48258 12897 ft 372 kts 324°
2026-05-01 11:03 48.46478 16.45437 13575 ft 381 kts 313°
2026-05-01 11:03 48.47920 16.42034 14256 ft 390 kts 302°
2026-05-01 11:03 48.49128 16.38346 14818 ft 394 kts 301°
2026-05-01 11:04 48.50346 16.34627 15373 ft 398 kts 301°
2026-05-01 11:04 48.51577 16.30873 15918 ft 401 kts 301°
2026-05-01 11:04 48.52822 16.27077 16461 ft 405 kts 301°
2026-05-01 11:04 48.54072 16.23252 17019 ft 409 kts 301°
2026-05-01 11:05 48.55336 16.19380 17504 ft 414 kts 301°
2026-05-01 11:05 48.56638 16.15490 18022 ft 416 kts 304°
2026-05-01 11:05 48.58221 16.11915 18532 ft 414 kts 314°
2026-05-01 11:05 48.60133 16.08674 18994 ft 414 kts 318°
2026-05-01 11:06 48.62103 16.05482 19437 ft 417 kts 318°
2026-05-01 11:06 48.64083 16.02263 19887 ft 420 kts 318°
2026-05-01 11:06 48.66075 15.99012 20338 ft 422 kts 318°
2026-05-01 11:07 48.70087 15.92454 21190 ft 427 kts 318°
2026-05-01 11:07 48.72109 15.89143 21601 ft 430 kts 318°
2026-05-01 11:07 48.74142 15.85805 21971 ft 432 kts 318°
2026-05-01 11:07 48.76183 15.82441 22347 ft 435 kts 318°
2026-05-01 11:08 48.78235 15.79057 22738 ft 437 kts 318°
2026-05-01 11:08 48.80300 15.75655 23102 ft 439 kts 318°
2026-05-01 11:08 48.84458 15.68792 23843 ft 444 kts 318°
2026-05-01 11:09 48.86561 15.65361 24158 ft 444 kts 321°
2026-05-01 11:09 48.88888 15.62330 24455 ft 438 kts 330°
2026-05-01 11:09 48.91461 15.59899 24747 ft 433 kts 338°
2026-05-01 11:10 48.96952 15.56198 25331 ft 433 kts 342°
2026-05-01 11:10 48.99722 15.54371 25564 ft 435 kts 341°
2026-05-01 11:10 49.02501 15.52530 25815 ft 437 kts 341°
2026-05-01 11:10 49.05293 15.50673 26075 ft 438 kts 341°
2026-05-01 11:11 49.08090 15.48807 26328 ft 440 kts 341°
2026-05-01 11:11 49.10858 15.46956 26565 ft 441 kts 341°
2026-05-01 11:11 49.13671 15.45077 26801 ft 442 kts 341°
2026-05-01 11:11 49.16493 15.43189 27014 ft 443 kts 341°
2026-05-01 11:12 49.19322 15.41294 27232 ft 444 kts 341°
2026-05-01 11:12 49.22150 15.39400 27535 ft 443 kts 341°
2026-05-01 11:12 49.24969 15.37511 27858 ft 442 kts 341°
2026-05-01 11:12 49.27781 15.35623 28183 ft 441 kts 341°
2026-05-01 11:13 49.30584 15.33736 28508 ft 440 kts 341°
2026-05-01 11:13 49.33380 15.31849 28827 ft 438 kts 341°
2026-05-01 11:13 49.36166 15.29965 29125 ft 438 kts 340°
2026-05-01 11:13 49.38957 15.28080 29384 ft 438 kts 340°
2026-05-01 11:14 49.41744 15.26197 29658 ft 438 kts 340°
2026-05-01 11:14 49.44534 15.24312 29999 ft 437 kts 340°
2026-05-01 11:14 49.47310 15.22436 30330 ft 436 kts 340°
2026-05-01 11:14 49.50082 15.20559 30627 ft 435 kts 340°
2026-05-01 11:15 49.52849 15.18682 30899 ft 434 kts 340°
2026-05-01 11:15 49.55610 15.16805 31171 ft 434 kts 340°
2026-05-01 11:15 49.58367 15.14928 31441 ft 433 kts 340°
2026-05-01 11:15 49.61121 15.13048 31714 ft 432 kts 340°
2026-05-01 11:16 49.63868 15.11171 31988 ft 432 kts 340°
2026-05-01 11:16 49.66611 15.09296 32249 ft 431 kts 340°
2026-05-01 11:16 49.69351 15.07425 32521 ft 430 kts 340°
2026-05-01 11:16 49.72118 15.05602 32794 ft 429 kts 342°
2026-05-01 11:17 49.74883 15.03965 33017 ft 428 kts 344°
2026-05-01 11:17 49.77691 15.02429 33252 ft 428 kts 345°
2026-05-01 11:17 49.79554 15.01441 33423 ft 427 kts 345°
2026-05-01 11:17 49.81455 15.00439 33601 ft 427 kts 345°